Location: Cardiff
(53.7833°N, 113.6000°W)
Time: 19:31:13
(UTC+00:00)

RS-15 - Pass Details

Date: 04 December 2023
Orbit: 1893 x 2151 km, 64.8° (Epoch: 24 February)

Event Time Altitude Azimuth Distance (km) Brightness Sun altitude
Exits shadow 07:28:43 22° 50° (NE) 3,542 9.4 -58.4°
Drops below altitude 10° 07:32:01 10° 57° (ENE) 4,415 10.0 -58.4°
Sets 07:35:25 0° 62° (ENE) 5,385 10.6 -58.4°
